Location: Burland Observatory
(39.4088°N, 105.4217°W)
Time: 03:28:59
(UTC-07:00)

Vanguard 3 - Pass Details

Date: 12 December 2019
Orbit: 507 x 3263 km, 33.4° (Epoch: 24 January)

Event Time Altitude Azimuth Distance (km) Brightness Sun altitude
Rises 05:06:21 0° 188° (S) 3,056 10.2 -23.5°
Reaches altitude 10° 05:10:04 10° 156° (SSE) 2,516 10.1 -22.8°
Maximum altitude 05:12:20 12° 133° (SE) 2,612 10.5 -22.4°
Drops below altitude 10° 05:14:59 10° 112° (ESE) 3,080 11.2 -21.9°
Sets 05:20:57 0° 86° (E) 4,767 12.4 -20.8°
